This demonstration page uses our WeatherBlox Daily Observations layout. Learn more.

Left ArrowRight Arrow

39.12711, -84.51439

Hourly Observations for August 16, 2018

Temp ( °F °C ) Dew Point ( °F °C ) Humidity (%) Winds ( mph kmh ) Pressure ( in mb ) Visibility ( mi km ) Precip ( " mm )
12:53 am 00:53 Clear 68 20 68 20 100 100 N N/A 30.03 1017 10 16 0.01 0.25
1:53 am 01:53 Mostly Cloudy with Light Rain 69 20.6 69 20.6 100 100 N N/A 30.02 1017 9 14 N/A
2:19 am 02:19 Mostly Cloudy with Light Rain 69 20.6 69 20.6 100 100 VRB 3 6 30.00 1016 3 4 0.05 1.27
2:35 am 02:35 Mostly Cloudy with Rain 70 21.1 70 21.1 100 100 WSW 6 9 30.03 1017 4 6 0.08 2.03
2:53 am 02:53 Cloudy with Rain 70 21.1 70 21.1 100 100 N N/A 30.03 1017 3 4 0.12 3.05
3:21 am 03:21 Cloudy with Nearby Thunderstorms 70 21.1 70 21.1 100 100 VRB 3 6 30.03 1017 3 5 0.10 2.54
3:26 am 03:26 Cloudy with Nearby Thunderstorms 70 21.1 70 21.1 100 100 W 16 26 30.06 1018 3 4 0.12 3.05
3:35 am 03:35 Cloudy with Strong Thunderstorms 69 20.6 69 20.6 100 100 WSW 12 19 30.03 1017 1 2 0.26 6.60
3:53 am 03:53 Cloudy with Thunderstorms 68 20 68 20 100 100 SSE 6 9 30.05 1018 3 4 0.49 12.45
4:00 am 04:00 Cloudy with Strong Thunderstorms 68 20 68 20 100 100 SSW 8 13 30.03 1017 3 5 0.04 1.02
4:04 am 04:04 Cloudy with Strong Thunderstorms 68 20 68 20 100 100 S 10 17 30.03 1017 2 2 0.14 3.56
4:20 am 04:20 Cloudy with Rain 69 20.6 69 20.6 100 100 SW 7 11 30.03 1017 3 5 0.27 6.86
4:53 am 04:53 Mostly Cloudy with Light Rain 68 20 68 20 100 100 N N/A 30.04 1017 6 10 0.32 8.13
5:53 am 05:53 Mostly Cloudy with Light Rain 68 20 68 20 100 100 SSW 5 7 30.03 1017 6 10 0.03 0.76
6:53 am 06:53 Partly Cloudy with Light Rain 68 20 68 20 100 100 SSW 8 13 30.03 1017 6 10 0.02 0.51
7:53 am 07:53 Mostly Cloudy with Rain 70 21.1 69 20.6 97 97 S 9 15 30.04 1017 4 6 0.04 1.02
8:53 am 08:53 Cloudy with Heavy Rain 70 21.1 70 21.1 100 100 S 10 17 30.06 1018 2 3 0.11 2.79
9:53 am 09:53 Cloudy with Light Rain 71 21.7 71 21.7 100 100 S 13 20 30.06 1018 4 6 0.31 7.87
10:02 am 10:02 Cloudy with Heavy Rain 71 21.7 71 21.7 100 100 S 10 17 30.03 1017 2 3 0.04 1.02
10:17 am 10:17 Cloudy with Rain 71 21.7 71 21.7 100 100 S 12 19 30.03 1017 3 5 0.09 2.29
10:53 am 10:53 Cloudy with Light Rain 72 22.2 71 21.7 97 97 S 13 20 30.07 1018 5 8 0.14 3.56
11:49 am 11:49 Cloudy with Light Rain 72 22 72 22 100 100 SSW 15 24 30.06 1018 6 10 0.04 1.02
11:53 am 11:53 Mostly Cloudy with Light Rain 72 22.2 71 21.7 97 97 SSW 14 22 30.06 1018 5 8 0.04 1.02
12:53 pm 12:53 Cloudy with Light Rain 72 22.2 71 21.7 97 97 S 12 19 30.06 1018 8 13 N/A
1:33 pm 13:33 Cloudy with Rain 72 22.2 71 21.7 97 97 S 6 9 30.03 1017 3 5 0.03 0.76
1:49 pm 13:49 Cloudy with Heavy Rain 72 22 72 22 100 100 S 7 11 30.03 1017 2 3 0.06 1.52
1:53 pm 13:53 Cloudy with Light Rain 72 22.2 72 22.2 100 100 S 8 13 30.04 1017 3 5 0.07 1.78
2:53 pm 14:53 Cloudy 75 23.9 73 22.8 94 94 S 8 13 30.04 1017 10 16 0.01 0.25
3:53 pm 15:53 Cloudy with Light Rain 75 23.9 73 22.8 94 94 S 12 19 30.02 1017 9 14 N/A
4:53 pm 16:53 Mostly Cloudy 78 25.6 74 23.3 87 87 S 7 11 29.99 1016 10 16 0.01 0.25
5:53 pm 17:53 Partly Cloudy 79 26.1 74 23.3 85 85 S 10 17 29.98 1015 10 16 N/A
6:53 pm 18:53 Mostly Cloudy 79 26.1 75 23.9 88 88 SSW 6 9 29.98 1015 10 16 N/A
7:36 pm 19:36 Mostly Cloudy with Nearby Thunderstorms 77 25 74 23.3 90 90 SW 6 9 29.97 1015 9 14 N/A
7:50 pm 19:50 Cloudy with Rain 77 25 73 23 89 89 SW 13 20 29.97 1015 2 2 0.07 1.78
7:53 pm 19:53 Cloudy with Heavy Rain 76 24.4 74 23.3 94 94 SW 9 15 29.99 1016 1 2 0.10 2.54
8:01 pm 20:01 Cloudy with Rain 76 24.4 75 23.9 97 97 S 9 15 29.97 1015 3 5 0.02 0.51
8:53 pm 20:53 Cloudy 74 23.3 74 23.3 100 100 SW 3 6 30.00 1016 10 16 0.03 0.76
9:32 pm 21:32 Cloudy with Heavy Rain 74 23.3 74 23.3 100 100 N N/A 30.00 1016 2 2 0.07 1.78
9:49 pm 21:49 Cloudy with Light Rain 73 23 73 23 100 100 N N/A 30.00 1016 3 5 0.21 5.33
9:53 pm 21:53 Cloudy with Heavy Rain 74 23.3 74 23.3 100 100 N N/A 30.00 1016 3 5 0.22 5.59
10:45 pm 22:45 Cloudy with Heavy Rain 74 23.3 74 23.3 100 100 SSE 6 9 30.00 1016 1 2 0.16 4.06
10:53 pm 22:53 Cloudy with Rain 74 23.3 74 23.3 100 100 N N/A 30.01 1016 3 4 0.18 4.57
10:57 pm 22:57 Cloudy with Thunderstorms 74 23.3 74 23.3 100 100 N N/A 30.00 1016 4 6 0.01 0.25
11:05 pm 23:05 Cloudy with Thunderstorms 74 23.3 74 23.3 100 100 S 5 7 30.00 1016 2 3 0.08 2.03
11:16 pm 23:16 Cloudy with Thunderstorms 74 23.3 74 23.3 100 100 NW 3 6 29.97 1015 3 4 0.13 3.30
11:23 pm 23:23 Cloudy with Thunderstorms 74 23.3 74 23.3 100 100 N N/A 29.97 1015 4 6 0.14 3.56
11:28 pm 23:28 Cloudy with Thunderstorms 75 23.9 74 23.3 96 96 VRB 3 6 30.00 1016 2 3 0.18 4.57
11:38 pm 23:38 Cloudy with Strong Thunderstorms 75 23.9 75 23.9 100 100 W 8 13 30.00 1016 2 3 0.25 6.35
11:43 pm 23:43 Cloudy with Strong Thunderstorms 74 23.3 74 23.3 100 100 WSW 3 6 29.97 1015 1 1 0.42 10.67
11:50 pm 23:50 Cloudy with Strong Thunderstorms 73 23 73 23 100 100 S 6 9 30.00 1016 1 1 0.57 14.48
11:53 pm 23:53 Cloudy with Strong Thunderstorms 74 23.3 74 23.3 100 100 SSE 8 13 30.00 1016 1 1 0.69 17.53

Powered by AerisWeather